Waarnemingen

Advertentie
Mijn weer
Calvi, Frankrijk (7754): temperatuur & dauwpunt: 13.07.2018 06:00:00 - 19.07.2018 06:00:00 (CEST)Calvi, Frankrijk (7754): temperatuur 5cm: 13.07.2018 06:00:00 - 19.07.2018 06:00:00 (CEST)Calvi, Frankrijk (7754): windsnelheid & windstoten: 13.07.2018 06:00:00 - 19.07.2018 06:00:00 (CEST)Calvi, Frankrijk (7754): windrichting: 13.07.2018 06:00:00 - 19.07.2018 06:00:00 (CEST)Calvi, Frankrijk (7754): luchtdruk: 13.07.2018 06:00:00 - 19.07.2018 06:00:00 (CEST)Calvi, Frankrijk (7754): zicht: 13.07.2018 06:00:00 - 19.07.2018 06:00:00 (CEST)Calvi, Frankrijk (7754): neerslag: 13.07.2018 06:00:00 - 19.07.2018 06:00:00 (CEST)
Datum & Tijd tt [°C] td [°C] tt 5cm [°C] ff [km/u] ff [kn] fx [km/u] fx [kn] dd ppp [hPa] vv [km] rr [mm]
19.07.2018 06:00:00 19,3 11,8 18,9 6 3 15 8 Z 1013,3 20 0,0
19.07.2018 05:00:00 20,9 12,3 20,1 10 6 15 8 ZZW 1013,4 58 0,0
19.07.2018 04:00:00 21,2 12,9 19,6 8 5 10 5 ZW 1013,9 59 0,0
19.07.2018 03:00:00 20,0 13,2 18,7 5 3 11 6 ZZW 1014,3 59 0,0
19.07.2018 02:00:00 19,9 13,6 19,0 6 3 11 6 ZZW 1014,7 51 0,0
19.07.2018 01:00:00 21,2 13,1 20,4 5 3 16 8 ZZO 1015,2 51 0,0
19.07.2018 00:00:00 21,3 14,0 20,4 6 3 11 6 Z 1015,1 48 0,0
18.07.2018 23:00:00 21,3 14,9 20,9 5 3 12 6 Z 1014,5 42 0,0
18.07.2018 22:00:00 23,1 16,9 22,5 6 4 11 6 Z 1014,0 36 0,0
18.07.2018 21:00:00 25,7 19,1 25,2 0 0 15 8 N 1013,4 32 0,0
18.07.2018 20:00:00 27,5 19,0 29,4 12 7 18 10 ONO 1013,6 48 0,0
18.07.2018 19:00:00 30,4 17,1 34,3 11 6 23 12 NNO 1013,3 45 0,0
18.07.2018 18:00:00 31,6 15,5 35,8 16 8 23 12 NNO 1013,4 41 0,0
18.07.2018 17:00:00 30,8 18,9 36,1 14 8 26 14 NO 1014,0 19 0,0
18.07.2018 16:00:00 30,5 20,1 35,8 16 9 26 14 N 1014,4 19 0,0
18.07.2018 15:00:00 29,2 21,2 33,7 17 9 27 15 N 1014,7 20 0,0
18.07.2018 14:00:00 28,7 21,5 31,9 17 9 29 16 N 1015,0 19 0,0
18.07.2018 13:00:00 28,1 20,6 33,2 16 9 22 12 N 1015,2 52 0,0
18.07.2018 12:00:00 27,2 20,5 - 16 9 30 16 N 1015,2 20 0,0
18.07.2018 11:00:00 26,8 20,2 - 12 7 19 11 NNW 1015,0 55 0,0
18.07.2018 10:00:00 26,2 20,5 - 10 6 17 9 NNW 1015,0 19 0,0
18.07.2018 09:00:00 25,7 21,1 - 6 4 11 6 N 1014,8 19 0,0
18.07.2018 08:00:00 24,0 17,3 19,8 4 2 14 7 NNO 1014,7 19 0,0
18.07.2018 07:00:00 18,8 13,9 17,0 14 8 17 9 ZZO 1014,3 45 0,0
18.07.2018 06:00:00 17,5 14,2 17,2 7 4 13 7 Z 1014,6 26 0,0
18.07.2018 05:00:00 18,2 14,5 18,2 12 7 15 8 Z 1014,0 24 0,0
18.07.2018 04:00:00 18,9 15,4 18,6 5 3 16 8 Z 1014,3 24 0,0
18.07.2018 03:00:00 19,7 16,5 18,4 12 7 16 9 Z 1014,5 27 0,0
18.07.2018 02:00:00 19,1 16,7 18,7 3 1 7 4 ZZW 1014,6 16 0,0
18.07.2018 01:00:00 20,2 17,2 20,0 7 4 11 6 Z 1014,4 17 0,0
18.07.2018 00:00:00 21,7 18,3 21,0 7 4 11 6 Z 1014,1 20 0,0
17.07.2018 23:00:00 22,0 19,0 21,4 2 1 8 4 W 1013,9 21 0,0
17.07.2018 22:00:00 23,7 19,8 22,9 0 0 11 6 N 1014,0 18 0,0
17.07.2018 21:00:00 25,2 20,0 25,1 9 5 17 9 ONO 1013,2 35 0,0
17.07.2018 20:00:00 27,8 19,8 30,7 8 5 18 10 ONO 1012,6 20 0,0
17.07.2018 19:00:00 28,7 19,6 32,9 13 7 21 11 ONO 1012,6 20 0,0
17.07.2018 18:00:00 30,5 17,9 35,6 12 6 28 15 NNO 1012,4 45 0,0
17.07.2018 17:00:00 31,7 17,6 36,7 13 7 42 23 ONO 1012,4 35 0,0
17.07.2018 16:00:00 30,8 16,4 37,2 11 6 21 11 WZW 1012,7 20 0,0
17.07.2018 15:00:00 31,1 14,7 35,7 10 5 24 13 NW 1012,7 20 0,0
17.07.2018 14:00:00 30,8 16,8 34,6 10 5 22 12 NNW 1012,6 60 0,0
17.07.2018 13:00:00 30,2 15,1 35,1 10 5 26 14 NNW 1012,5 20 0,0
17.07.2018 12:00:00 28,8 17,7 - 11 6 19 10 NNO 1012,5 20 0,0
17.07.2018 11:00:00 28,0 17,8 29,6 9 5 16 9 N 1012,4 48 0,0
17.07.2018 10:00:00 26,9 15,6 28,3 8 4 12 7 NNW 1012,2 59 0,0
17.07.2018 09:00:00 25,4 14,8 24,1 4 2 11 6 NNO 1011,9 60 0,0
17.07.2018 08:00:00 22,4 16,0 19,9 9 5 15 8 ZZW 1011,8 55 0,0
17.07.2018 07:00:00 18,5 15,7 17,2 6 3 11 6 ZZW 1011,8 51 0,0
17.07.2018 06:00:00 18,2 15,4 17,6 7 4 12 6 Z 1011,7 60 0,0
17.07.2018 05:00:00 19,3 15,6 18,2 11 6 20 11 ZZO 1011,5 46 0,0
17.07.2018 04:00:00 19,6 17,4 18,7 11 6 16 8 Z 1011,6 50 0,0
17.07.2018 03:00:00 20,1 17,3 19,8 8 4 14 7 Z 1011,8 38 0,0
17.07.2018 02:00:00 20,8 17,4 20,1 6 4 12 6 Z 1011,7 41 0,0
17.07.2018 01:00:00 22,1 17,5 20,1 8 4 27 14 ZW 1011,3 39 0,6
17.07.2018 00:00:00 22,2 18,4 20,1 22 12 30 16 Z 1010,1 20 2,4
16.07.2018 23:00:00 22,3 17,9 21,7 12 7 29 16 Z 1009,6 19 0,0
16.07.2018 22:00:00 22,7 18,2 21,5 19 11 33 18 Z 1009,7 20 0,0
16.07.2018 21:00:00 24,7 18,9 22,4 26 14 54 29 ZZW 1008,7 15 0,0
16.07.2018 20:00:00 27,2 18,5 27,7 26 14 45 25 ZW 1007,7 18 0,0
16.07.2018 19:00:00 29,7 19,1 30,3 22 12 45 25 ZZW 1007,1 18 0,0
16.07.2018 18:00:00 30,0 19,4 30,8 22 12 55 30 ZZW 1007,8 17 0,0
16.07.2018 17:00:00 30,2 18,9 32,6 36 20 74 40 ZZW 1008,4 16 0,0
16.07.2018 16:00:00 31,0 16,2 30,7 26 14 46 25 ZW 1009,4 20 0,0
16.07.2018 15:00:00 28,8 18,0 30,2 23 12 36 20 N 1008,5 52 0,0
16.07.2018 14:00:00 28,1 20,6 30,8 21 12 34 19 NNW 1008,5 56 0,0
16.07.2018 13:00:00 29,1 21,3 31,0 12 6 19 10 NW 1009,2 19 0,0
16.07.2018 12:00:00 28,1 20,4 27,2 6 3 17 9 WZW 1010,4 37 0,0
16.07.2018 11:00:00 25,7 21,4 26,7 6 4 23 13 NW 1011,0 25 0,0
16.07.2018 10:00:00 26,9 21,0 25,7 12 7 29 15 N 1011,8 31 0,0
16.07.2018 09:00:00 25,6 16,4 24,5 6 4 19 10 ZW 1011,5 46 0,0
16.07.2018 08:00:00 24,3 16,0 24,7 4 2 26 14 NNW 1012,7 39 0,0
16.07.2018 07:00:00 26,4 13,2 20,0 11 6 27 15 Z 1012,3 51 0,0
16.07.2018 06:00:00 20,0 14,1 19,2 8 5 16 8 ZZW 1013,0 46 0,0
16.07.2018 05:00:00 20,8 14,4 19,6 10 6 15 8 Z 1013,2 35 0,0
16.07.2018 04:00:00 20,0 14,4 19,7 7 4 13 7 Z 1014,0 40 0,0
16.07.2018 03:00:00 20,1 15,3 19,7 7 4 13 7 ZZW 1014,3 37 0,0
16.07.2018 02:00:00 21,4 16,8 21,2 7 4 10 5 ZZW 1013,7 28 0,0
16.07.2018 01:00:00 24,6 20,7 23,6 3 2 21 12 NW 1013,4 24 0,0
16.07.2018 00:00:00 26,4 14,2 24,0 6 4 20 11 N 1012,7 54 0,0
15.07.2018 23:00:00 23,8 16,6 23,1 4 2 9 5 ZO 1013,7 46 0,0
15.07.2018 22:00:00 24,9 18,6 24,2 3 2 8 5 NW 1013,4 32 0,0
15.07.2018 21:00:00 27,5 17,1 27,3 8 4 14 8 ONO 1012,5 47 0,0
15.07.2018 20:00:00 31,2 13,5 33,1 10 6 27 15 ZZW 1012,4 60 0,0
15.07.2018 19:00:00 32,6 11,7 35,5 13 7 28 15 ZW 1012,7 55 0,0
15.07.2018 18:00:00 33,2 13,8 37,4 9 5 28 15 ZW 1013,3 53 0,0
15.07.2018 17:00:00 33,8 12,7 39,0 10 5 30 16 WZW 1013,6 38 0,0
15.07.2018 16:00:00 34,1 12,4 39,3 16 9 31 17 WZW 1013,9 20 0,0
15.07.2018 15:00:00 34,7 15,6 38,7 13 7 27 14 WZW 1013,6 60 0,0
15.07.2018 14:00:00 34,8 14,1 37,8 14 8 26 14 ZW 1013,7 60 0,0
15.07.2018 13:00:00 32,7 22,8 37,3 14 8 20 11 NO 1014,0 18 0,0
15.07.2018 12:00:00 29,8 22,3 34,5 10 6 24 13 NO 1014,5 17 0,0
15.07.2018 11:00:00 29,4 21,9 32,5 6 3 23 12 N 1014,8 16 0,0
15.07.2018 10:00:00 28,5 21,0 30,5 9 5 15 8 NNO 1014,5 19 0,0
15.07.2018 09:00:00 27,1 20,4 27,5 4 2 8 4 NNO 1014,9 18 0,0
15.07.2018 08:00:00 24,5 19,3 22,4 3 2 7 4 ZZW 1014,7 30 0,0
15.07.2018 07:00:00 21,4 17,0 19,3 3 2 14 7 ZZO 1014,3 24 0,0
15.07.2018 06:00:00 19,9 16,1 19,4 6 4 14 7 Z 1014,1 19 0,0
15.07.2018 05:00:00 20,1 16,5 19,7 5 3 9 5 ZW 1014,3 23 0,0
15.07.2018 04:00:00 21,3 16,7 20,5 6 3 15 8 ZZW 1013,8 24 0,0
15.07.2018 03:00:00 21,2 16,8 20,9 4 2 10 5 ZZW 1013,8 20 0,0
15.07.2018 02:00:00 21,2 17,0 21,1 6 3 11 6 Z 1013,9 24 0,0
15.07.2018 01:00:00 21,3 19,0 21,1 7 4 12 7 ZZW 1014,3 18 0,0
15.07.2018 00:00:00 22,6 20,5 22,3 7 4 10 5 Z 1014,5 9 0,0
14.07.2018 23:00:00 23,2 21,5 23,0 5 3 10 5 ZZO 1014,8 10 0,0
14.07.2018 22:00:00 24,4 22,5 24,3 4 2 9 5 NO 1014,5 15 0,0
14.07.2018 21:00:00 25,3 22,6 25,5 7 4 13 7 NO 1013,5 15 0,0
14.07.2018 20:00:00 27,5 21,8 30,0 9 5 16 8 NO 1013,3 20 0,0
14.07.2018 19:00:00 29,5 20,9 32,7 13 7 34 18 NNO 1013,4 32 0,0
14.07.2018 18:00:00 31,7 16,4 36,1 10 5 29 16 ZZO 1013,5 20 0,0
14.07.2018 17:00:00 34,4 18,8 37,8 12 6 39 21 ZZW 1012,9 60 0,0
14.07.2018 16:00:00 34,1 16,9 37,7 9 5 29 16 NNW 1012,7 20 0,0
14.07.2018 15:00:00 32,7 16,5 34,8 15 8 31 17 NW 1013,1 20 0,0
14.07.2018 14:00:00 30,8 17,5 31,9 18 10 42 23 NW 1013,6 20 0,0
14.07.2018 13:00:00 29,5 18,3 30,9 16 9 36 19 NW 1014,1 15 0,0
14.07.2018 12:00:00 32,4 20,3 30,7 10 5 31 17 N 1014,1 20 0,0
14.07.2018 11:00:00 30,4 19,1 32,4 8 4 22 12 N 1014,8 20 0,0
14.07.2018 10:00:00 30,3 17,4 30,5 5 3 13 7 NW 1015,4 52 0,0
14.07.2018 09:00:00 27,5 15,8 25,8 0 0 10 5 N 1016,0 50 0,0
14.07.2018 08:00:00 24,1 15,6 21,0 6 3 14 8 NNO 1016,2 60 0,0
14.07.2018 07:00:00 20,4 13,8 18,4 9 5 15 8 Z 1016,6 18 0,0
14.07.2018 06:00:00 18,9 13,5 18,5 4 2 12 7 ZZW 1016,4 60 0,0
14.07.2018 05:00:00 20,5 13,9 19,9 2 1 16 9 ZZW 1016,7 60 0,0
14.07.2018 04:00:00 20,3 14,4 19,9 11 6 16 9 ZZW 1016,6 60 0,0
14.07.2018 03:00:00 20,7 15,5 19,2 10 5 13 7 ZZW 1016,5 56 0,0
14.07.2018 02:00:00 19,7 15,1 19,5 5 3 15 8 ZZO 1016,8 44 0,0
14.07.2018 01:00:00 19,9 17,3 19,9 8 5 11 6 ZZW 1017,1 31 0,0
14.07.2018 00:00:00 21,8 19,4 21,4 2 1 13 7 ZZW 1017,1 20 0,0
13.07.2018 23:00:00 23,0 20,5 22,4 9 5 12 7 Z 1016,8 18 0,0
13.07.2018 22:00:00 23,8 20,9 23,8 4 2 12 6 ZZW 1016,8 20 0,0
13.07.2018 21:00:00 24,9 21,2 25,3 2 1 12 6 NO 1016,5 20 0,0
13.07.2018 20:00:00 25,7 21,1 26,9 11 6 19 11 N 1016,1 33 0,0
13.07.2018 19:00:00 27,1 20,2 29,4 11 6 17 9 NNO 1016,3 50 0,0
13.07.2018 18:00:00 27,3 20,1 30,1 12 7 24 13 N 1016,4 47 0,0
13.07.2018 17:00:00 27,7 21,3 33,2 17 9 25 13 N 1016,6 60 0,0
13.07.2018 16:00:00 27,6 20,9 34,4 16 9 25 13 N 1016,7 60 0,0
13.07.2018 15:00:00 27,8 20,6 32,6 18 10 34 18 N 1016,9 20 0,0
13.07.2018 14:00:00 28,3 19,8 32,4 23 13 32 17 N 1016,8 19 0,0
13.07.2018 13:00:00 29,0 19,9 33,3 22 12 29 15 N 1016,7 19 0,0
13.07.2018 12:00:00 29,8 15,9 35,1 21 11 28 15 N 1016,8 60 0,0
13.07.2018 11:00:00 30,2 12,6 33,0 10 5 17 9 N 1016,8 60 0,0
13.07.2018 10:00:00 29,4 12,3 31,4 4 2 9 5 W 1017,0 57 0,0
13.07.2018 09:00:00 28,2 13,3 26,7 0 0 6 3 N 1017,0 42 0,0
13.07.2018 08:00:00 24,1 14,8 20,6 4 2 8 4 ZZW 1016,8 20 0,0
13.07.2018 07:00:00 19,6 14,0 17,3 6 3 9 5 ZZW 1016,7 49 0,0
13.07.2018 06:00:00 18,1 13,2 17,4 8 4 14 7 ZZW 1016,6 48 0,0

tt = temperatuur
td = dauwpunt
tt 5cm = temperatuur 5cm
ff = windsnelheid
fx = windstoten
dd = windrichting
ppp = luchtdruk
vv = zicht
rr = neerslag

Weerstations in de omgeving